Nottely Observed Data For Previous 48 Hours

Caption
Day and Hour Reservoir Elevation (behind dam)* Tailwater Elevation (below dam)* Average Hourly Discharge*
10/16/2018 2 AM EDT 1,765.77 1,607.03 63
10/16/2018 3 AM EDT 1,765.77 1,607.19 62
10/16/2018 4 AM EDT 1,765.77 1,607.19 63
10/16/2018 5 AM EDT 1,765.78 1,607.04 62
10/16/2018 6 AM EDT 1,765.78 1,607.04 63
10/16/2018 7 AM EDT 1,765.78 1,607.03 62
10/16/2018 8 AM EDT 1,765.79 1,607.03 63
10/16/2018 9 AM EDT 1,765.79 1,607.19 62
10/16/2018 10 AM EDT 1,765.80 1,607.19 63
10/16/2018 11 AM EDT 1,765.79 1,607.19 62
10/16/2018 12 PM EDT 1,765.80 1,610.98 168
10/16/2018 1 PM EDT 1,765.77 1,611.48 1,378
10/16/2018 2 PM EDT 1,765.75 1,611.49 1,382
10/16/2018 3 PM EDT 1,765.71 1,611.46 1,375
10/16/2018 4 PM EDT 1,765.71 1,611.48 1,376
10/16/2018 5 PM EDT 1,765.69 1,611.47 1,382
10/16/2018 6 PM EDT 1,765.66 1,611.49 1,379
10/16/2018 7 PM EDT 1,765.64 1,611.42 1,386
10/16/2018 8 PM EDT 1,765.63 1,611.47 1,377
10/16/2018 9 PM EDT 1,765.61 1,611.46 1,383
10/16/2018 10 PM EDT 1,765.58 1,611.48 1,384
10/16/2018 11 PM EDT 1,765.59 1,607.18 142
10/17/2018 12 AM EDT 1,765.59 1,607.18 62
10/17/2018 1 AM EDT 1,765.60 1,607.01 63
10/17/2018 2 AM EDT 1,765.61 1,607.02 62
10/17/2018 3 AM EDT 1,765.62 1,607.17 63
10/17/2018 4 AM EDT 1,765.63 1,607.17 62
10/17/2018 5 AM EDT 1,765.63 1,607.18 63
10/17/2018 6 AM EDT 1,765.64 1,607.18 62
10/17/2018 7 AM EDT 1,765.65 1,607.17 63
10/17/2018 8 AM EDT 1,765.65 1,607.18 62
10/17/2018 9 AM EDT 1,765.66 1,607.02 63
10/17/2018 10 AM EDT 1,765.66 1,607.00 63
10/17/2018 11 AM EDT 1,765.67 1,607.01 62
10/17/2018 12 PM EDT 1,765.67 1,611.25 194
10/17/2018 1 PM EDT 1,765.65 1,611.50 1,390
10/17/2018 2 PM EDT 1,765.62 1,611.48 1,390
10/17/2018 3 PM EDT 1,765.58 1,611.49 1,385
10/17/2018 4 PM EDT 1,765.56 1,611.51 1,386
10/17/2018 5 PM EDT 1,765.52 1,611.46 1,382
10/17/2018 6 PM EDT 1,765.50 1,611.47 1,384
10/17/2018 7 PM EDT 1,765.47 1,611.50 1,382
10/17/2018 8 PM EDT 1,765.44 1,611.46 1,383
10/17/2018 9 PM EDT 1,765.41 1,611.48 1,379
10/17/2018 10 PM EDT 1,765.38 1,611.46 1,381
10/17/2018 11 PM EDT 1,765.38 1,607.18 151
10/18/2018 12 AM EDT 1,765.38 1,607.19 63
10/18/2018 1 AM EDT 1,765.39 1,607.19 62

Elevations are in feet above sea level. Discharges are in cubic feet per second and are reported at the end of the hour.